Огаста

США     33°28′27″N   81°57′48″W
темп.,
°C
ветер,
м/с
пор.,
м/с
влажн.,
%
обл.,
%
осадки,
мм/ч
давл.,
гПа
погр.,
м
20 апреля, вт
вт2023:00+17всв1146100 0.0 101511
02:00+15в2351100 0.0 1016112
05:00+14в2461100 0.0 1016138
08:00+14вюв266197 0.0 1018206
11:00+21ююв464194 0.0 10181316
14:00+25ю4534100 0.0 10162731
17:00+19ю2463100 0.2 1014280
20:00+18ююв257271 0.8 1014213
21 апреля, ср
ср2123:00+15ююв378689 0.3 1015222
02:00+14ююз26945 0.4 1014178
05:00+14зюз26870 0.0 1013155
08:00+14зюз312700 0.0 1014387
11:00+22з612403 0.0 10132001
14:00+23з812321 0.0 10132251
17:00+21зсз710200 0.0 10141869
20:00+14зсз611300 0.0 1018891
22 апреля, чт
чт2223:00+9ссв47450 0.0 1021591
02:00+7ссв39440 0.0 1022423
05:00+5ссв26495 0.0 1023243
08:00+6св244635 0.0 1024254
11:00+14св11275 0.0 10241284
14:00+17зюз352060 0.0 10222005
17:00+19зсз572041 0.0 10202361
20:00+15зсз363210 0.0 1021483
23 апреля, пт
пт2323:00+13сз24392 0.0 1022106
02:00+10с355325 0.0 1023163
05:00+9с244999 0.0 1023147
08:00+9с225099 0.0 1025185
11:00+16ссв113499 0.0 1024603
14:00+21юз2323100 0.0 10221526
17:00+21зюз3324100 0.0 10201729
20:00+18юз113699 0.0 102013
24 апреля, сб
сб2423:00+16в114177 0.0 102015
02:00+15ююв2661100 0.0 1019201
05:00+15ююв1472100 0.0 1018181
08:00+14всв2598100 5.1 1018180
11:00+14в71398100 17.3 1014775
14:00+15всв51198100 66.8 1014595
17:00+16юв2698100 6.8 1010223
20:00+17ю31099100 24.3 1008551